SUNNYSIDE Weather Reports


time (UTC)temp
C
wind
direction
speed
KPH
gust
KPH
rain 1hr
cm
rain 24hr
cm
rain mn
cm
humidity
%
barometer
mb
20260905182549 20 132 4.8 14.5 0.00 0.61 0.61 65 984.9
20260905182048 20 99 3.2 14.5 0.00 0.61 0.61 66 985.0
20260905181548 20 86 1.6 14.5 0.00 0.61 0.61 67 984.9
20260905181046 19 145 4.8 14.5 0.00 0.61 0.61 67 985.0
20260905180547 19 121 3.2 14.5 0.00 0.61 0.61 67 984.9
20260905180052 19 74 4.8 14.5 0.00 0.61 0.61 67 985.0
20260905175543 18 67 3.2 11.3 0.00 0.61 0.61 67 985.1
20260905175041 18 55 3.2 11.3 0.00 0.61 0.61 68 985.0
20260905174541 18 107 3.2 9.7 0.00 0.61 0.61 68 985.0
20260905174043 18 63 3.2 14.5 0.00 0.61 0.61 68 985.1
20260905173541 18 76 4.8 14.5 0.00 0.61 0.61 67 985.2
20260905173101 18 75 1.6 14.5 0.00 0.61 0.61 67 985.2
20260905172541 18 99 4.8 12.9 0.00 0.61 0.61 67 985.0
20260905172042 18 32 1.6 12.9 0.00 0.61 0.61 67 984.9
20260905171541 18 107 1.6 9.7 0.00 0.61 0.61 67 985.0
20260905171042 18 60 3.2 12.9 0.00 0.61 0.61 67 985.2
20260905170541 18 57 6.4 12.9 0.00 0.61 0.61 67 985.3
20260905170044 19 103 4.8 9.7 0.00 0.61 0.61 67 985.5
20260905165540 19 123 1.6 8.0 0.00 0.61 0.61 67 985.6
20260905165039 19 104 1.6 8.0 0.00 0.61 0.61 67 985.4
20260905164539 19 140 1.6 9.7 0.00 0.61 0.61 68 985.4
20260905164040 19 67 3.2 9.7 0.00 0.61 0.61 67 985.2
20260905163540 19 49 1.6 8.0 0.00 0.61 0.61 68 985.1
20260905163038 19 151 0.0 9.7 0.00 0.61 0.61 68 985.0
20260905162537 19 60 3.2 9.7 0.00 0.61 0.61 68 985.1
20260905162036 19 42 0.0 6.4 0.00 0.61 0.61 68 985.2
20260905161546 18 42 0.0 6.4 0.00 0.61 0.61 68 985.3
20260905161035 18 96 0.0 3.2 0.00 0.61 0.61 68 985.1
20260905160536 18 88 0.0 3.2 0.00 0.61 0.61 68 985.0
20260905160034 18 76 0.0 3.2 0.00 0.61 0.61 68 984.8
20260905155535 18 82 0.0 4.8 0.00 0.61 0.61 68 984.5
20260905155033 18 67 0.0 4.8 0.00 0.61 0.61 68 984.9
20260905154533 18 65 0.0 4.8 0.03 0.61 0.61 68 984.8
20260905154033 18 107 0.0 14.5 0.03 0.61 0.61 68 984.9
20260905153532 18 105 3.2 14.5 0.03 0.61 0.61 68 984.9
20260905153033 18 171 6.4 14.5 0.03 0.61 0.61 68 984.5
20260905152533 18 153 4.8 17.7 0.03 0.61 0.61 68 984.3
20260905152033 18 125 9.7 19.3 0.05 0.61 0.61 68 984.3
20260905151532 18 128 9.7 49.9 0.08 0.61 0.61 70 984.7
20260905151030 18 146 9.7 49.9 0.15 0.61 0.61 70 984.2
20260905150534 18 120 4.8 24.1 0.20 0.61 0.61 70 984.8
20260905150030 18 22 3.2 25.7 0.28 0.61 0.61 70 985.0
20260905145530 17 345 9.7 19.3 0.33 0.61 0.61 70 984.4
20260905145025 17 52 6.4 33.8 0.36 0.58 0.58 70 983.4
20260905144525 17 88 12.9 40.2 0.38 0.58 0.58 70 981.9
20260905144023 16 34 16.1 40.2 0.41 0.58 0.58 70 984.0
20260905143521 16 92 19.3 30.6 0.43 0.58 0.58 70 984.4
20260905143021 16 360 19.3 30.6 0.46 0.58 0.58 70 985.0
20260905142520 16 89 16.1 25.7 0.46 0.58 0.58 70 985.9
20260905142020 16 123 8.0 32.2 0.46 0.56 0.56 70 985.9
20260905141520 16 82 16.1 32.2 0.43 0.53 0.53 70 985.6
20260905141022 16 106 9.7 14.5 0.36 0.46 0.46 70 987.4
20260905140523 16 145 8.0 12.9 0.28 0.38 0.38 70 988.1
20260905140018 15 132 3.2 11.3 0.23 0.33 0.33 70 988.4
20260905135519 15 132 1.6 9.7 0.18 0.25 0.25 70 988.7
20260905135019 15 209 0.0 9.7 0.15 0.23 0.23 70 988.6
20260905134519 15 180 1.6 9.7 0.13 0.20 0.20 70 988.6
20260905134017 15 233 3.2 9.7 0.10 0.18 0.18 70 988.4
20260905133517 15 184 0.0 8.0 0.08 0.15 0.15 70 988.6
20260905133024 15 196 3.2 8.0 0.08 0.13 0.13 70 988.3
20260905132517 15 180 0.0 8.0 0.08 0.13 0.13 70 988.5
20260905132015 15 159 3.2 8.0 0.05 0.10 0.10 70 988.1
20260905131523 15 139 1.6 6.4 0.10 0.10 0.10 70 987.8
20260905131017 15 22 0.0 4.8 0.10 0.10 0.10 70 987.6
20260905130515 15 22 1.6 6.4 0.10 0.10 0.10 70 987.2
20260905130014 15 22 1.6 6.4 0.10 0.10 0.10 70 987.1
20260905125517 15 22 0.0 6.4 0.08 0.08 0.08 70 987.4
20260905125014 15 360 3.2 6.4 0.08 0.08 0.08 70 987.6
20260905124513 15 255 0.0 0.0 0.08 0.08 0.08 70 987.8
20260905124012 15 255 0.0 0.0 0.08 0.08 0.08 70 987.9
20260905123513 15 255 0.0 0.0 0.08 0.08 0.08 70 987.8
20260905123013 15 255 0.0 3.2 0.05 0.05 0.05 70 987.8
20260905122512 15 255 0.0 4.8 0.05 0.05 0.05 70 987.7
20260905122012 15 255 1.6 3.2 0.05 0.05 0.05 70 987.8
20260905121512 15 252 0.0 4.8 0.00 0.00 0.00 70 987.8
20260905121013 15 252 1.6 4.8 0.00 0.00 0.00 70 988.0
20260905120513 15 252 1.6 3.2 0.00 0.00 0.00 70 987.7
20260905120009 15 252 0.0 0.0 0.00 0.00 0.00 70 987.4
20260905115509 15 252 0.0 1.6 0.00 0.00 0.00 70 987.2
20260905115011 15 252 0.0 1.6 0.00 0.00 0.00 70 987.2
20260905114509 14 252 0.0 4.8 0.00 0.00 0.00 70 987.2
20260905114008 14 252 0.0 8.0 0.00 0.00 0.00 70 987.1
20260905113508 14 254 4.8 8.0 0.00 0.00 0.00 70 987.2
20260905113011 15 255 3.2 6.4 0.00 0.00 0.00 70 987.1
20260905112506 14 250 3.2 6.4 0.00 0.00 0.00 70 987.0
20260905112005 14 360 0.0 1.6 0.00 0.00 0.00 70 986.5
20260905111506 14 360 0.0 0.0 0.00 0.00 0.00 70 986.2
20260905111004 14 360 0.0 1.6 0.00 0.00 0.00 70 985.9
20260905110503 14 360 0.0 3.2 0.00 0.00 0.00 70 985.8
20260905110004 14 124 0.0 6.4 0.00 0.00 0.00 70 985.7
20260905105507 14 124 3.2 6.4 0.00 0.00 0.00 70 985.6
20260905105002 14 106 0.0 4.8 0.00 0.00 0.00 70 985.6
20260905104502 14 109 0.0 3.2 0.00 0.00 0.00 70 985.7
20260905104004 14 109 0.0 4.8 0.00 0.00 0.00 70 985.6
20260905103505 14 109 0.0 6.4 0.00 0.00 0.00 70 985.3
20260905103006 14 119 1.6 6.4 0.00 0.00 0.00 70 985.3
20260905102501 14 129 1.6 4.8 0.00 0.00 0.00 70 985.3
20260905102004 14 127 0.0 4.8 0.00 0.00 0.00 70 985.3
20260905101502 14 360 1.6 4.8 0.00 0.00 0.00 70 985.1
20260905101002 14 117 0.0 4.8 0.00 0.00 0.00 70 985.0
20260905100501 14 103 0.0 4.8 0.00 0.00 0.00 69 985.1
20260905100002 14 102 0.0 6.4 0.00 0.00 0.00 70 985.1
20260905095501 14 123 3.2 9.7 0.00 0.00 0.00 70 985.2
20260905095100 14 360 3.2 6.4 0.00 0.00 0.00 70 985.2
20260905094600 14 120 3.2 4.8 0.00 0.00 0.00 70 985.1
20260905094059 14 107 1.6 4.8 0.00 0.00 0.00 70 984.9
20260905093559 14 117 1.6 6.4 0.00 0.00 0.00 70 985.0
20260905093059 14 102 3.2 6.4 0.00 0.00 0.00 70 985.1
20260905092602 14 123 0.0 3.2 0.00 0.00 0.00 70 984.9
20260905092058 14 123 0.0 3.2 0.00 0.00 0.00 70 985.0
20260905091608 14 123 0.0 3.2 0.00 0.00 0.00 70 985.0
20260905091100 14 123 0.0 4.8 0.00 0.00 0.00 69 985.1
20260905090559 14 123 1.6 4.8 0.00 0.00 0.00 69 985.2
20260905090056 14 123 1.6 4.8 0.00 0.00 0.00 69 985.5
20260905085556 14 123 1.6 4.8 0.00 0.00 0.00 69 985.5
20260905085055 14 98 0.0 4.8 0.00 0.00 0.00 69 985.5
20260905084558 14 98 0.0 4.8 0.00 0.00 0.00 69 985.5
20260905084054 14 97 0.0 4.8 0.00 0.00 0.00 69 985.6
20260905083553 14 110 0.0 3.2 0.00 0.00 0.00 69 985.7
20260905083107 14 106 0.0 3.2 0.00 0.00 0.00 69 985.8
20260905082551 14 105 0.0 4.8 0.00 0.00 0.00 69 985.9
20260905082051 14 105 1.6 4.8 0.00 0.00 0.00 69 986.0
20260905081550 15 110 1.6 4.8 0.00 0.00 0.00 69 986.0
20260905081049 15 113 1.6 4.8 0.00 0.00 0.00 69 986.1
20260905080548 15 110 3.2 6.4 0.00 0.00 0.00 69 986.1
20260905080048 15 100 1.6 6.4 0.00 0.00 0.00 68 986.1
20260905075547 15 117 1.6 4.8 0.00 0.00 0.00 68 985.9
20260905075046 15 117 1.6 4.8 0.00 0.00 0.00 68 986.1
20260905074548 15 125 1.6 6.4 0.00 0.00 0.00 68 985.9
20260905074045 15 138 3.2 6.4 0.00 0.00 0.00 69 986.0
20260905073545 15 139 1.6 6.4 0.00 0.00 0.00 68 986.0
20260905073045 15 143 3.2 6.4 0.00 0.00 0.00 69 986.1
20260905072549 15 129 1.6 6.4 0.00 0.00 0.00 69 986.1
20260905072044 15 123 3.2 6.4 0.00 0.00 0.00 69 986.0
20260905071544 15 126 1.6 4.8 0.00 0.00 0.00 68 985.9
20260905071044 15 89 0.0 1.6 0.00 0.00 0.00 68 986.0
20260905070544 15 89 0.0 6.4 0.00 0.00 0.00 68 986.0
20260905070042 15 89 1.6 6.4 0.00 0.00 0.00 68 985.9
20260905065541 16 121 1.6 4.8 0.00 0.00 0.00 68 985.9
20260905065040 16 123 0.0 6.4 0.00 0.00 0.00 68 985.9
20260905064541 16 124 1.6 6.4 0.00 0.00 0.00 68 985.9
20260905064041 16 105 1.6 3.2 0.00 0.00 0.00 68 986.0
20260905063540 16 109 0.0 4.8 0.00 0.00 0.00 68 986.0
20260905063040 16 111 0.0 4.8 0.00 0.00 0.00 68 986.0
20260905062540 16 360 0.0 4.8 0.00 0.00 0.00 68 985.9
20260905062040 16 360 0.0 3.2 0.00 0.00 0.00 68 985.9
20260905061542 16 115 0.0 0.0 0.00 0.00 0.00 68 985.9
20260905061037 16 115 0.0 0.0 0.00 0.00 0.00 68 985.9
20260905060538 16 115 0.0 0.0 0.00 0.00 0.00 68 985.9
20260905060044 16 115 0.0 1.6 0.00 0.00 0.00 67 985.9
20260905055537 16 115 0.0 1.6 0.00 0.00 0.00 67 986.0
20260905055036 16 115 0.0 1.6 0.00 0.00 0.00 67 985.9
20260905054602 16 115 0.0 0.0 0.00 0.00 0.00 67 986.0
20260905054036 16 115 0.0 0.0 0.00 0.00 0.00 67 986.0
20260905053539 16 115 0.0 1.6 0.00 0.00 0.00 67 986.0
20260905053035 16 115 0.0 1.6 0.00 0.00 0.00 67 986.0
20260905052533 16 115 0.0 1.6 0.00 0.00 0.00 67 986.0
20260905052033 16 115 0.0 1.6 0.00 0.00 0.00 67 986.1
20260905051534 16 115 0.0 0.0 0.00 0.00 0.00 67 986.2
20260905051031 16 115 0.0 0.0 0.00 0.00 0.00 67 986.1
20260905050534 16 115 0.0 0.0 0.00 0.00 0.00 67 985.9
20260905050031 17 115 0.0 0.0 0.00 0.00 0.00 67 985.8
20260905045533 17 115 0.0 0.0 0.00 0.00 0.00 67 985.7
20260905045029 17 115 0.0 0.0 0.00 0.00 0.00 67 985.7
20260905044530 17 115 0.0 0.0 0.00 0.00 0.00 67 985.8
20260905044028 17 115 0.0 1.6 0.00 0.00 0.00 67 985.7
20260905043528 17 115 0.0 1.6 0.00 0.00 0.00 67 985.8
20260905043029 17 115 0.0 0.0 0.00 0.00 0.00 67 985.8
20260905042528 17 115 0.0 0.0 0.00 0.00 0.00 67 985.7
20260905042028 17 115 0.0 0.0 0.00 0.00 0.00 67 985.6
20260905041528 17 115 0.0 0.0 0.00 0.00 0.00 67 985.7
20260905041027 17 115 0.0 0.0 0.00 0.00 0.00 66 985.6
20260905040531 17 115 0.0 0.0 0.00 0.00 0.00 66 985.6
20260905040027 17 115 0.0 0.0 0.00 0.00 0.00 66 985.5
20260905035528 17 115 0.0 0.0 0.00 0.00 0.00 66 985.5
20260905035028 17 115 0.0 0.0 0.00 0.00 0.00 65 985.5
20260905034527 17 115 0.0 0.0 0.00 0.00 0.00 65 985.6
20260905034027 17 115 0.0 0.0 0.00 0.00 0.00 64 985.6
20260905033528 17 115 0.0 0.0 0.00 0.00 0.00 65 985.6
20260905033028 17 115 0.0 0.0 0.00 0.00 0.00 64 985.6
20260905032526 17 115 0.0 0.0 0.00 0.00 0.00 64 985.5
20260905032026 17 115 0.0 0.0 0.00 0.00 0.00 64 985.7
20260905031526 18 115 0.0 0.0 0.00 0.00 0.00 64 985.6
20260905031025 18 115 0.0 0.0 0.00 0.00 0.00 64 985.6
20260905030526 18 115 0.0 0.0 0.00 0.00 0.00 64 985.6
20260905030033 18 115 0.0 0.0 0.00 0.00 0.00 64 985.5
20260905025527 18 115 0.0 0.0 0.00 0.00 0.00 63 985.4
20260905025026 18 115 0.0 1.6 0.00 0.00 0.00 64 985.6
20260905024525 18 115 0.0 1.6 0.00 0.00 0.00 64 985.5
20260905024024 18 115 0.0 1.6 0.00 0.00 0.00 63 985.5
20260905023525 18 115 0.0 0.0 0.00 0.00 0.00 63 985.4
20260905023024 18 115 0.0 0.0 0.00 0.00 0.00 62 985.4
20260905022524 18 115 0.0 0.0 0.00 0.00 0.00 62 985.4
20260905022026 19 115 0.0 0.0 0.00 0.00 0.00 61 985.4
20260905021525 19 115 0.0 0.0 0.00 0.00 0.00 61 985.3
20260905021024 19 115 0.0 0.0 0.00 0.00 0.00 61 985.0
20260905020527 19 115 0.0 3.2 0.00 0.00 0.00 61 985.2
20260905020023 19 115 0.0 3.2 0.00 0.00 0.00 61 985.2
20260905015523 20 115 0.0 1.6 0.00 0.00 0.00 61 985.2
20260905015024 20 115 0.0 0.0 0.00 0.00 0.00 60 985.0
20260905014523 20 115 0.0 0.0 0.00 0.00 0.00 60 984.9
20260905014022 20 115 0.0 0.0 0.00 0.00 0.00 59 984.9
20260905013524 20 115 0.0 0.0 0.00 0.00 0.00 58 984.9
20260905013022 20 115 0.0 0.0 0.00 0.00 0.00 57 984.8
20260905012524 21 115 0.0 0.0 0.00 0.00 0.00 57 984.8
20260905012022 21 115 0.0 0.0 0.00 0.00 0.00 58 984.8
20260905011522 21 115 0.0 0.0 0.00 0.00 0.00 58 984.8
20260905011022 21 115 0.0 0.0 0.00 0.00 0.00 57 984.6
20260905010521 22 115 0.0 1.6 0.00 0.00 0.00 57 984.6
20260905010021 22 115 0.0 1.6 0.00 0.00 0.00 57 984.6
20260905005521 22 115 0.0 0.0 0.00 0.00 0.00 56 984.6
20260905005021 23 115 0.0 0.0 0.00 0.00 0.00 56 984.5
20260905004521 23 115 0.0 1.6 0.00 0.00 0.00 56 984.3
20260905004021 23 115 0.0 1.6 0.00 0.00 0.00 56 984.3
20260905003521 23 115 0.0 1.6 0.00 0.00 0.00 56 984.4
20260905003023 23 360 0.0 4.8 0.00 0.00 0.00 56 984.5
20260905002522 23 360 1.6 9.7 0.00 0.00 0.00 55 984.6
20260905002020 23 123 1.6 6.4 0.00 0.00 0.00 55 984.6
20260905001521 24 87 1.6 8.0 0.00 0.00 0.00 55 984.6
20260905001021 24 76 3.2 8.0 0.00 0.00 0.00 55 984.7
20260905000526 24 130 1.6 9.7 0.00 0.00 0.00 55 984.7
20260905000031 24 114 3.2 9.7 0.00 0.00 0.00 55 984.8
20260904235521 24 124 4.8 9.7 0.00 0.00 0.00 55 984.9
20260904235019 24 144 3.2 6.4 0.00 0.00 0.00 55 984.9
20260904234522 24 117 3.2 12.9 0.00 0.00 0.00 54 984.8
20260904234019 25 128 4.8 16.1 0.00 0.00 0.00 54 984.9
20260904233519 25 123 6.4 16.1 0.00 0.00 0.00 54 984.9
20260904233020 25 360 4.8 12.9 0.00 0.00 0.00 54 984.8
20260904232518 25 132 6.4 12.9 0.00 0.00 0.00 54 984.8
20260904232020 25 137 4.8 12.9 0.00 0.00 0.00 53 984.8
20260904231520 25 66 4.8 12.9 0.00 0.00 0.00 53 984.7
20260904231018 25 138 3.2 14.5 0.00 0.00 0.00 54 984.7
20260904230518 25 107 8.0 14.5 0.00 0.00 0.00 53 984.8
20260904230019 25 101 8.0 12.9 0.00 0.00 0.00 54 984.8
20260904225519 25 140 6.4 19.3 0.00 0.00 0.00 54 984.8
20260904225017 25 91 9.7 19.3 0.00 0.00 0.00 53 984.7
20260904224520 25 144 8.0 17.7 0.00 0.00 0.00 53 984.9
20260904224017 25 86 8.0 19.3 0.00 0.00 0.00 53 984.8
20260904223516 25 360 11.3 19.3 0.00 0.00 0.00 52 984.8
20260904223019 26 92 6.4 12.9 0.00 0.00 0.00 52 984.6
20260904222519 26 96 4.8 9.7 0.00 0.00 0.00 49 984.8
20260904222016 26 79 1.6 14.5 0.00 0.00 0.00 50 984.7
20260904221516 26 115 1.6 14.5 0.00 0.00 0.00 49 984.7
20260904221017 26 181 3.2 8.0 0.00 0.00 0.00 48 984.7
20260904220517 26 86 3.2 9.7 0.00 0.00 0.00 49 984.7
20260904220017 26 360 4.8 11.3 0.00 0.00 0.00 49 984.7
20260904215517 26 88 1.6 9.7 0.00 0.00 0.00 50 984.7
20260904215015 26 88 3.2 11.3 0.00 0.00 0.00 51 984.6
20260904214515 26 86 1.6 14.5 0.00 0.00 0.00 50 984.6
20260904214015 26 88 8.0 14.5 0.00 0.00 0.00 49 984.5
20260904213516 26 116 4.8 11.3 0.00 0.00 0.00 49 984.5
20260904213015 26 136 6.4 12.9 0.00 0.00 0.00 50 984.4
20260904212515 26 122 6.4 12.9 0.00 0.00 0.00 49 984.4
20260904212014 26 107 1.6 16.1 0.00 0.00 0.00 50 984.3
20260904211515 26 140 1.6 16.1 0.00 0.00 0.00 50 984.4
20260904211013 26 174 4.8 12.9 0.00 0.00 0.00 50 984.3
20260904210512 26 89 1.6 11.3 0.00 0.00 0.00 49 984.3
20260904210016 26 107 6.4 12.9 0.00 0.00 0.00 49 984.3
20260904205512 26 98 4.8 12.9 0.00 0.00 0.00 49 984.6
20260904205011 26 34 1.6 11.3 0.00 0.00 0.00 49 984.5
20260904204511 26 123 3.2 12.9 0.00 0.00 0.00 51 984.5
20260904204014 26 132 4.8 12.9 0.00 0.00 0.00 49 984.6
20260904203511 25 109 4.8 9.7 0.00 0.00 0.00 50 984.6
20260904203010 25 156 1.6 12.9 0.00 0.00 0.00 50 984.7
20260904202509 25 100 4.8 12.9 0.00 0.00 0.00 51 984.6
20260904202012 25 84 6.4 12.9 0.00 0.00 0.00 50 984.6
20260904201509 25 100 3.2 12.9 0.00 0.00 0.00 50 984.7
20260904201009 25 110 3.2 11.3 0.00 0.00 0.00 50 984.8
20260904200508 25 86 1.6 11.3 0.00 0.00 0.00 50 984.7
20260904200008 25 121 3.2 11.3 0.00 0.00 0.00 50 984.8
20260904195511 25 103 4.8 9.7 0.00 0.03 0.00 44 984.8
20260904195006 25 360 3.2 11.3 0.00 0.03 0.00 44 984.9
20260904194505 25 137 4.8 11.3 0.00 0.03 0.00 44 984.9
20260904194006 25 100 1.6 11.3 0.00 0.03 0.00 45 984.9
20260904193505 25 112 3.2 12.9 0.00 0.03 0.00 45 984.9
20260904193005 25 54 4.8 12.9 0.00 0.03 0.00 46 985.0
20260904192506 25 78 3.2 12.9 0.00 0.03 0.00 45 985.0
20260904192004 25 76 4.8 11.3 0.00 0.03 0.00 46 985.0
20260904191503 24 151 1.6 11.3 0.00 0.03 0.00 45 985.1
20260904191004 24 170 1.6 11.3 0.00 0.03 0.00 46 985.2
20260904190504 24 86 3.2 14.5 0.00 0.03 0.00 48 985.2
20260904190003 24 67 3.2 9.7 0.00 0.03 0.00 48 985.3
20260904185500 24 169 3.2 8.0 0.00 0.03 0.00 47 985.2
20260904185059 23 140 1.6 12.9 0.00 0.03 0.00 49 985.4
20260904184616 23 136 4.8 12.9 0.00 0.03 0.00 48 985.4
20260904184059 23 90 0.0 6.4 0.00 0.03 0.00 50 985.4
20260904183559 23 90 0.0 8.0 0.00 0.03 0.00 47 985.5
20260904183059 23 171 1.6 8.0 0.00 0.03 0.00 48 985.6